Dewpoint
-2 -0 1 -1 -3 -4 -3 -3 -2 -3 -1 6 7 8 13 12 12 13 15 15 15 15 14 15 14 13 13 13 14 12 13 14 14 14 14 15 15 16 15 15 14 14 15 15
-4 0 -1 -3 -3 -4 -4 -3 -3 -4 -1 6 7 8 8 12 12 12 12 13 14 15 15 15 14 14 14 13 13 13 13 14 14 14 14 13 13 14 14 15 14 14 15 15
-1 -4 -5 -3 -3 -3 -4 -4 -4 -4 -4 5 8 9 8 12 12 13 13 12 12 13 13 12 12 13 13 14 13 13 12 14 14 15 15 14 14 13 14 14 14 15 15 14
-6 -8 -6 -4 -2 -3 -2 -6 -6 -5 -3 -1 6 11 9 11 13 12 12 13 12 12 12 12 12 12 12 12 13 13 13 13 14 15 14 14 15 15 14 12 13 14 13 14
-5 -6 -6 -4 -4 -4 -2 -5 -5 -4 -4 -3 1 8 7 9 12 10 10 11 12 12 12 11 11 10 11 11 11 13 13 13 14 14 14 15 15 14 14 12 14 14 14 13
-5 -6 -8 -6 -5 -6 -5 -5 -7 -4 -3 0 -2 1 0 10 8 8 6 9 11 11 11 12 11 11 11 11 11 11 12 12 13 13 14 14 14 14 14 15 13 14 14 15
-5 -6 -6 -6 -4 -4 -5 -6 -1 -3 -1 -1 -4 2 -1 3 7 6 6 6 9 10 10 11 11 11 12 12 11 11 12 12 13 13 13 13 14 14 14 14 14 12 15 15
-0 1 -5 -7 -5 -4 -4 -4 -2 -2 -1 -2 -2 2 0 -0 3 6 5 5 6 8 9 10 10 10 10 11 11 11 11 12 12 13 13 13 13 14 14 14 14 12 15 14
-1 -0 -5 -4 -7 -6 -5 -4 -7 -7 -3 -3 -1 -2 -2 -0 3 4 6 5 6 7 8 9 9 9 9 11 11 11 11 11 11 12 12 13 13 14 14 13 13 12 15 13
-5 -3 -6 -5 -5 -7 -6 -9 -7 -8 -2 -2 -5 -3 -3 1 0 3 6 5 6 6 7 7 8 9 9 9 9 10 10 10 11 11 12 12 12 13 14 14 11 13 14 14
-6 -6 -5 -6 -5 -2 -3 -6 -8 -8 -7 -5 -4 -6 -8 -3 -0 2 4 6 6 6 6 6 6 8 8 9 10 10 10 11 11 11 11 12 13 13 14 14 11 12 12 13
-0 -6 -4 -4 -6 -8 -5 -4 -6 -5 -5 -7 -7 -6 -8 -6 -4 -1 -0 1 3 6 6 6 6 7 8 9 10 10 10 10 10 10 11 11 12 13 14 14 13 8 12 12
4 2 -3 -6 -8 -8 -5 -5 -6 -6 -7 -4 -6 -6 -8 -7 -4 -1 -1 2 3 4 6 7 6 6 7 8 9 10 10 9 10 11 11 11 12 12 13 14 14 7 11 12
1 1 0 -1 -4 -6 -6 -6 -5 -6 -4 -4 -5 -7 -8 -8 -7 -6 -0 -4 2 5 6 7 7 6 6 7 7 9 9 9 10 10 11 11 11 12 12 13 14 11 7 10
1 4 1 0 0 -0 -2 -6 -7 -5 -5 -4 -5 -7 -9 -8 -7 -7 -10 -10 -7 -2 5 6 7 7 7 7 8 8 10 10 10 10 11 11 11 11 12 13 14 13 9 8
1 4 2 2 -1 -1 -1 -4 -5 -7 -6 -6 -6 -7 -9 -10 -10 -10 -12 -13 -8 -9 0 4 6 6 6 6 7 8 10 11 10 10 9 11 10 11 12 13 13 14 12 9
2 3 3 4 1 1 1 -3 -5 -5 -7 -6 -5 -7 -9 -9 -9 -9 -11 -11 -9 -11 -9 4 4 2 2 3 4 7 7 9 11 10 10 11 10 10 11 13 13 13 13 12
2 3 3 4 3 4 -2 -6 -6 -6 -6 -6 -8 -7 -6 -7 -10 -11 -12 -10 -8 -10 -5 3 4 4 3 0 4 4 8 9 10 10 12 12 10 10 11 12 13 13 13 11
-0 1 4 4 5 3 -1 -2 -5 -4 -4 -4 -5 -6 -6 -7 -5 -3 -7 -8 -8 -10 -6 -2 1 1 0 -1 0 7 10 9 11 10 10 11 9 10 11 12 12 13 14 13
-1 -0 3 4 5 5 1 7 8 5 -3 -3 -2 -3 -3 -2 -2 -4 -2 -5 -3 0 -2 -1 -1 -1 1 3 6 9 10 10 10 9 8 9 9 10 10 10 11 12 13 13
4 3 5 5 6 5 8 11 10 5 -1 8 3 -1 3 -1 -4 -4 2 2 0 -2 -3 -3 -3 -2 -1 3 7 8 10 10 7 7 8 11 11 11 11 11 13 12 12 14
7 8 7 5 7 7 10 10 13 12 13 9 7 6 5 4 6 5 4 4 2 0 -1 0 2 -2 -4 1 8 8 10 5 6 9 10 10 11 11 13 13 14 14 15 16
6 7 8 6 7 9 9 10 10 11 13 14 7 9 10 12 10 9 8 6 3 1 0 1 2 5 4 3 10 10 8 6 7 9 10 9 10 12 14 14 13 16 17 17
5 7 8 9 10 10 11 10 11 11 12 13 14 13 14 14 14 13 12 10 10 10 8 6 5 7 10 9 7 3 7 10 11 10 8 9 9 12 15 16 16 16 18 18
5 7 7 9 10 9 10 9 10 10 12 13 14 15 15 16 16 16 16 16 16 16 15 14 13 13 13 13 13 13 12 8 10 11 12 12 13 15 17 16 17 17 18 18
6 7 8 9 10 10 10 9 9 9 10 11 12 13 13 14 15 15 15 15 15 14 14 14 13 13 13 10 9 7 11 17 15 15 14 14 15 15 16 17 18 18 18 18
Wind_Speed
13 8 10 10 7 6 3 4 6 5 5 5 11 7 20 28 26 27 31 34 36 41 49 45 44 42 42 42 39 36 36 33 32 31 30 31 29 25 23 20 17 15 14 14
3 16 9 9 8 9 7 8 12 0 7 5 6 13 19 22 32 39 37 37 41 43 37 44 44 44 45 44 43 41 40 36 34 31 29 31 29 29 28 25 21 16 15 15
12 6 9 9 7 8 6 9 10 8 2 0 5 3 10 21 18 26 31 40 39 42 44 46 45 45 46 49 47 43 42 41 38 34 29 28 25 28 32 32 29 22 18 16
7 9 12 8 8 9 8 6 8 3 4 3 5 4 6 16 21 20 29 33 37 40 41 42 49 46 46 46 45 45 43 42 42 39 34 32 30 29 27 27 29 23 18 19
9 14 16 12 19 8 11 5 6 4 5 1 5 1 6 17 18 20 24 35 39 42 44 49 52 54 53 47 46 45 45 44 43 42 38 35 34 30 25 25 26 24 22 21
16 8 15 10 8 14 5 1 4 3 3 5 16 9 9 12 22 23 24 38 44 44 48 52 57 56 54 52 50 48 48 47 45 43 41 38 35 32 29 27 27 27 25 23
7 20 5 7 10 6 5 7 4 3 4 10 9 6 15 8 22 28 27 40 49 49 50 52 50 50 52 57 56 54 53 51 49 47 44 40 38 32 30 29 27 27 28 26
9 6 17 6 10 11 9 11 6 7 4 9 5 9 8 17 17 31 41 48 44 43 47 50 58 59 59 59 60 59 58 56 53 50 46 42 40 35 29 29 28 30 31 26
10 11 4 15 8 15 7 10 13 2 1 2 5 8 6 8 11 11 21 26 35 43 47 55 56 60 61 60 62 63 62 59 57 53 49 46 42 39 32 27 29 31 33 28
7 2 8 9 8 8 15 8 4 2 11 12 5 7 5 8 15 10 11 19 32 40 48 58 54 57 60 62 63 63 63 63 60 56 52 49 44 40 36 29 31 32 35 32
3 4 6 7 9 18 6 7 3 7 6 9 4 10 9 10 10 11 12 25 34 41 51 55 58 53 56 59 58 62 61 62 63 60 54 51 48 44 40 33 32 35 34 33
6 3 15 19 7 17 14 16 9 5 12 9 12 11 1 13 15 10 13 23 36 48 55 57 57 50 49 52 56 60 60 60 61 60 57 51 49 47 44 38 34 37 37 35
7 4 2 6 5 3 9 13 16 12 3 20 10 7 6 9 8 13 17 14 17 33 42 40 39 39 49 53 55 59 59 59 59 58 58 55 51 49 48 42 38 38 39 38
3 3 3 7 5 2 7 11 16 16 13 16 19 7 4 8 10 9 14 12 15 20 35 39 39 43 48 52 56 57 58 57 57 57 56 58 52 48 49 44 40 39 41 41
4 2 3 6 12 15 14 12 26 20 23 17 16 12 12 10 11 12 22 20 18 20 35 42 47 50 49 50 52 54 54 54 55 56 56 57 52 48 48 47 46 41 41 43
4 3 6 5 9 13 17 17 23 28 25 14 15 8 9 17 22 8 24 30 27 25 23 44 49 52 49 52 55 54 53 53 53 53 56 56 52 50 51 49 49 46 44 43
3 1 5 5 9 12 9 29 20 15 15 18 17 10 9 9 10 14 29 34 33 32 31 36 47 41 43 45 44 53 53 54 53 53 54 55 53 52 52 52 50 50 48 45
4 2 2 5 6 8 12 11 16 20 17 9 5 10 10 12 30 36 34 26 21 19 21 35 43 40 40 36 44 45 53 54 54 52 53 55 53 52 53 53 53 52 50 49
18 6 3 3 4 9 14 8 7 11 10 7 15 11 8 17 11 9 25 28 26 25 22 30 42 36 35 41 43 48 50 54 55 52 54 56 53 53 54 54 54 54 53 51
20 18 8 3 4 7 1 15 26 17 19 14 13 12 10 11 6 10 19 20 17 20 20 18 20 22 28 37 45 46 49 51 55 54 52 52 54 55 55 53 53 54 54 52
8 9 12 9 5 8 6 23 15 5 11 6 18 15 11 7 13 22 21 17 15 15 14 16 20 22 18 28 42 45 47 51 52 53 51 54 55 55 55 55 53 53 52 50
10 8 7 10 9 10 14 11 8 10 32 18 18 20 20 20 19 18 14 11 11 11 10 8 8 13 20 25 35 42 46 40 47 55 53 52 53 53 55 55 55 51 49 46
5 6 8 10 8 3 5 4 25 27 21 19 27 27 33 28 22 18 14 11 7 4 2 4 6 4 9 22 26 39 40 40 46 52 53 52 53 53 53 53 53 53 48 42
7 6 6 3 5 5 14 22 24 22 14 10 15 29 24 29 22 19 15 12 8 5 2 3 9 12 13 13 10 23 32 38 43 50 54 53 54 55 51 48 46 48 47 43
9 10 11 3 3 3 15 23 17 14 16 19 19 23 24 27 23 21 17 14 12 10 6 4 4 10 15 18 20 19 19 31 36 42 48 51 53 47 43 46 46 45 44 43
10 11 10 6 7 9 7 16 9 16 25 28 29 28 25 23 21 17 17 14 12 10 9 7 8 8 11 15 18 22 21 19 23 23 36 38 39 42 44 42 40 38 34 38
Wind_Direction
184 191 208 208 191 199 189 249 258 137 298 132 214 181 180 186 189 190 188 192 195 207 210 211 211 211 213 216 215 217 213 210 209 209 208 210 216 219 223 224 231 237 238 246
155 219 198 195 191 214 221 232 262 116 206 161 208 214 192 183 201 193 189 194 201 209 211 214 217 216 216 218 216 218 217 213 211 212 212 218 224 225 230 232 232 236 232 236
209 227 175 185 187 191 224 209 244 241 25 49 105 344 173 202 206 203 204 202 202 203 201 211 213 216 220 220 217 216 218 217 215 213 212 216 221 229 235 232 231 234 238 236
223 230 194 192 209 176 235 204 258 264 52 239 131 255 187 194 212 207 208 208 209 212 210 208 212 213 217 220 221 220 219 218 217 216 214 216 218 222 226 225 225 228 223 237
216 186 202 211 213 166 239 190 225 182 207 230 227 209 264 178 212 217 214 212 214 213 212 211 213 215 217 219 221 222 221 220 219 218 219 219 221 230 230 220 219 218 221 228
210 202 196 196 197 201 176 232 8 29 142 242 245 175 247 187 204 212 216 214 215 212 214 216 215 216 219 220 222 223 223 222 221 221 223 225 227 233 230 226 226 227 229 235
181 224 220 162 195 184 133 114 249 271 206 239 210 195 227 206 203 209 207 214 216 211 212 216 216 213 219 221 222 223 224 224 223 223 225 229 231 238 239 232 230 225 224 233
182 213 207 172 183 197 199 179 167 198 203 241 163 229 230 210 226 214 212 216 215 211 211 214 218 219 217 222 223 223 225 225 225 225 227 231 234 237 238 236 234 229 228 230
183 232 227 195 191 180 195 194 197 157 187 7 229 276 297 203 229 227 212 213 208 207 208 216 217 220 221 219 223 225 226 228 229 229 228 229 233 235 235 234 231 232 227 230
215 216 218 203 173 208 193 172 166 346 218 242 264 247 229 196 220 232 220 202 209 210 210 220 220 219 222 223 227 226 227 228 230 229 230 230 233 234 235 234 228 227 224 229
326 195 224 132 189 200 192 196 182 156 165 223 234 255 179 205 222 206 219 214 212 215 217 219 226 220 222 224 223 228 227 228 229 230 230 231 231 233 233 233 231 225 226 226
337 269 244 227 221 203 209 210 168 169 223 240 237 231 307 192 201 198 229 231 229 222 224 224 223 219 216 218 223 227 228 229 231 230 229 231 233 234 233 231 232 224 226 225
342 303 282 331 290 314 214 204 202 219 170 230 215 244 220 176 200 211 222 240 243 241 226 220 218 214 219 223 224 229 229 231 231 230 228 228 231 232 233 230 231 226 225 227
62 296 239 259 264 287 206 228 215 206 226 229 232 237 232 207 205 230 218 247 237 231 223 218 214 217 223 226 227 229 231 231 230 231 230 227 228 232 232 230 231 230 225 228
73 264 275 299 296 288 267 259 224 216 222 218 230 202 233 223 201 214 226 244 242 233 222 218 215 218 224 226 227 230 232 230 229 229 231 230 228 230 232 230 230 231 229 229
5 282 344 288 258 257 262 256 250 228 219 230 239 219 212 229 238 245 239 249 256 257 238 220 211 217 223 229 232 228 229 231 228 230 233 232 229 228 230 230 231 230 230 230
305 166 358 282 313 318 271 236 247 255 222 202 219 208 191 241 221 228 240 244 247 257 254 217 210 209 218 223 229 230 231 233 230 232 233 232 232 230 230 231 232 233 233 232
206 175 166 268 306 235 264 197 233 236 243 218 160 202 197 203 231 236 234 234 229 246 241 215 209 211 221 234 231 238 228 228 230 231 232 231 232 233 232 231 233 233 234 234
206 182 237 229 240 291 296 318 239 187 231 210 203 215 215 211 202 255 238 239 247 254 254 231 219 226 236 239 241 230 225 227 229 230 233 233 233 233 232 232 232 234 236 235
201 205 189 205 243 237 89 336 334 316 225 200 186 197 179 146 188 234 233 235 219 211 205 210 212 219 230 236 231 227 227 227 230 233 235 235 236 233 234 234 234 234 236 237
177 200 203 233 262 284 343 337 314 161 242 166 191 191 154 181 211 227 186 185 189 204 222 225 222 221 229 234 229 228 229 230 236 236 237 236 236 237 236 236 235 235 236 235
197 162 177 211 219 259 12 351 353 308 303 265 161 165 159 160 150 154 160 169 173 173 181 186 196 229 234 233 232 234 231 233 239 237 236 239 239 239 237 236 237 235 236 232
250 179 175 189 222 257 355 321 305 307 296 309 135 143 143 138 138 141 137 135 132 143 215 266 282 264 231 233 242 236 239 247 246 239 239 240 241 240 237 235 234 234 230 227
276 179 196 152 208 263 29 346 341 338 14 38 114 136 138 129 127 124 125 122 116 97 73 317 302 306 318 309 277 245 247 254 249 242 241 239 237 237 234 232 233 233 230 220
245 192 211 195 221 291 37 358 349 11 69 76 84 100 112 122 117 119 112 104 96 91 80 38 326 303 306 312 313 306 277 250 249 255 251 243 236 226 214 223 224 225 227 222
233 226 198 213 188 114 67 323 16 65 71 78 82 79 77 83 88 96 98 83 72 59 49 38 26 353 329 317 321 328 326 311 260 244 246 231 222 213 212 215 203 206 211 215
Height
1459 1469 1473 1468 1470 1471 1472 1475 1477 1472 1461 1466 1470 1472 1470 1475 1480 1484 1487 1489 1492 1495 1496 1503 1508 1512 1516 1520 1525 1528 1533 1536 1540 1543 1547 1550 1551 1555 1557 1559 1561 1563 1565 1567
1460 1460 1457 1460 1464 1468 1471 1477 1475 1467 1464 1466 1469 1471 1466 1471 1467 1468 1475 1481 1483 1490 1497 1499 1503 1508 1509 1512 1518 1523 1527 1531 1534 1538 1543 1546 1548 1551 1554 1557 1559 1561 1563 1565
1453 1450 1451 1456 1461 1467 1468 1474 1468 1471 1465 1462 1467 1474 1472 1468 1473 1477 1478 1477 1480 1483 1486 1490 1495 1499 1503 1507 1510 1515 1520 1525 1530 1534 1539 1542 1545 1548 1550 1552 1555 1558 1560 1562
1449 1443 1447 1454 1457 1460 1476 1457 1461 1464 1473 1490 1463 1501 1474 1468 1469 1469 1471 1473 1475 1479 1483 1486 1489 1493 1495 1498 1504 1510 1514 1520 1525 1530 1533 1535 1538 1542 1544 1547 1552 1555 1557 1559
1440 1438 1444 1450 1444 1451 1456 1453 1459 1462 1472 1476 1472 1488 1474 1462 1471 1467 1464 1465 1468 1471 1476 1477 1479 1482 1486 1493 1497 1503 1508 1514 1519 1524 1528 1531 1534 1538 1542 1544 1548 1551 1554 1556
1428 1427 1431 1435 1439 1443 1447 1455 1461 1464 1478 1495 1465 1479 1467 1465 1457 1453 1455 1456 1457 1462 1466 1469 1471 1477 1482 1488 1492 1496 1501 1506 1512 1516 1521 1524 1528 1533 1537 1540 1543 1546 1549 1551
1429 1428 1424 1425 1441 1441 1447 1470 1498 1500 1496 1478 1458 1475 1449 1438 1436 1436 1441 1441 1443 1448 1454 1460 1467 1472 1475 1479 1484 1489 1494 1498 1504 1509 1514 1518 1522 1527 1531 1535 1538 1541 1544 1546
1439 1447 1423 1418 1426 1439 1448 1455 1490 1501 1498 1472 1458 1466 1438 1421 1420 1422 1426 1426 1433 1442 1446 1450 1452 1458 1464 1468 1474 1480 1485 1491 1496 1501 1507 1512 1517 1521 1524 1528 1533 1536 1539 1542
1433 1430 1407 1406 1413 1420 1439 1450 1441 1466 1470 1481 1460 1435 1419 1414 1417 1416 1421 1426 1428 1430 1435 1437 1442 1447 1453 1459 1463 1469 1476 1482 1488 1494 1501 1506 1511 1515 1518 1522 1527 1530 1534 1537
1410 1427 1406 1402 1406 1412 1419 1429 1451 1473 1478 1479 1461 1447 1438 1420 1415 1413 1413 1416 1419 1422 1424 1426 1431 1437 1443 1448 1452 1461 1468 1473 1479 1486 1493 1499 1504 1509 1513 1517 1520 1523 1528 1531
1408 1413 1407 1400 1409 1411 1420 1425 1431 1440 1455 1459 1468 1435 1405 1411 1407 1408 1406 1407 1409 1412 1413 1417 1423 1427 1434 1442 1447 1452 1459 1466 1473 1479 1486 1492 1497 1502 1507 1511 1514 1518 1522 1525
1417 1417 1409 1401 1391 1388 1398 1407 1425 1444 1445 1437 1427 1427 1386 1390 1392 1397 1397 1399 1400 1401 1402 1406 1414 1419 1427 1433 1439 1443 1450 1457 1462 1470 1478 1484 1490 1495 1499 1504 1507 1511 1515 1519
1429 1426 1421 1412 1400 1393 1400 1396 1398 1406 1420 1415 1433 1423 1388 1389 1393 1392 1393 1392 1392 1394 1397 1403 1411 1416 1417 1423 1429 1434 1440 1446 1454 1461 1468 1475 1481 1486 1490 1496 1499 1503 1508 1512
1425 1430 1425 1421 1410 1399 1403 1393 1389 1397 1407 1405 1398 1407 1393 1389 1389 1386 1387 1388 1388 1389 1389 1394 1401 1407 1411 1415 1420 1424 1429 1437 1446 1451 1457 1464 1471 1476 1481 1488 1492 1494 1499 1503
1431 1438 1425 1415 1413 1400 1396 1393 1381 1387 1382 1391 1389 1401 1393 1384 1382 1382 1381 1383 1384 1386 1387 1388 1393 1397 1404 1412 1415 1418 1422 1428 1435 1442 1447 1452 1461 1469 1475 1479 1483 1488 1490 1494
1432 1432 1428 1416 1400 1393 1389 1377 1368 1360 1368 1379 1380 1388 1373 1369 1370 1374 1374 1374 1374 1376 1378 1381 1383 1390 1395 1398 1404 1409 1415 1418 1426 1432 1436 1443 1452 1459 1464 1469 1474 1479 1482 1486
1436 1432 1431 1425 1407 1401 1392 1347 1360 1361 1358 1362 1376 1369 1367 1368 1368 1367 1365 1366 1366 1369 1369 1372 1376 1381 1384 1387 1393 1398 1403 1409 1417 1422 1428 1434 1441 1448 1455 1461 1466 1469 1472 1477
1432 1433 1431 1429 1414 1408 1339 1341 1344 1351 1351 1353 1351 1354 1356 1355 1353 1354 1355 1357 1360 1362 1364 1367 1371 1374 1378 1382 1383 1388 1396 1400 1406 1413 1419 1426 1432 1437 1444 1450 1455 1459 1463 1466
1419 1424 1428 1425 1416 1382 1352 1346 1344 1350 1351 1345 1343 1344 1345 1348 1350 1349 1351 1353 1356 1358 1358 1359 1366 1370 1372 1374 1378 1383 1388 1393 1398 1403 1409 1415 1421 1426 1432 1437 1442 1449 1454 1458
1404 1409 1410 1414 1410 1395 1356 1352 1349 1342 1341 1323 1328 1332 1338 1344 1360 1349 1346 1349 1352 1354 1356 1358 1361 1364 1366 1368 1372 1378 1381 1386 1390 1394 1399 1404 1410 1417 1421 1426 1432 1438 1442 1447
1408 1414 1411 1411 1404 1380 1359 1348 1340 1357 1333 1320 1321 1324 1332 1338 1334 1334 1341 1345 1349 1352 1356 1357 1359 1360 1362 1364 1367 1369 1373 1377 1381 1388 1392 1397 1402 1407 1412 1418 1423 1428 1432 1438
1387 1391 1399 1405 1399 1397 1360 1349 1362 1353 1333 1321 1312 1315 1322 1326 1331 1335 1339 1343 1346 1349 1353 1355 1357 1359 1361 1362 1364 1366 1368 1371 1377 1382 1385 1389 1393 1398 1403 1409 1415 1419 1425 1431
1385 1373 1379 1379 1376 1361 1359 1361 1354 1347 1337 1326 1308 1315 1318 1323 1329 1334 1338 1340 1344 1347 1350 1352 1354 1356 1358 1359 1362 1366 1365 1370 1371 1375 1378 1380 1383 1388 1392 1397 1402 1413 1416 1424
1371 1364 1367 1364 1360 1362 1353 1353 1352 1347 1338 1327 1321 1317 1324 1325 1330 1335 1338 1341 1344 1346 1348 1350 1352 1352 1354 1357 1361 1363 1366 1370 1371 1370 1369 1371 1372 1377 1384 1392 1399 1407 1416 1415
1369 1361 1357 1355 1357 1354 1347 1352 1354 1348 1339 1332 1330 1326 1329 1331 1335 1338 1342 1344 1346 1349 1352 1353 1355 1357 1357 1357 1357 1358 1360 1360 1361 1364 1366 1369 1367 1372 1380 1382 1386 1393 1402 1408
1359 1351 1353 1351 1351 1351 1353 1365 1361 1355 1343 1338 1337 1336 1337 1336 1337 1341 1342 1346 1349 1352 1354 1356 1357 1359 1358 1359 1359 1359 1359 1357 1357 1357 1359 1361 1368 1362 1370 1379 1382 1384 1393 1409